[[{"header":{"parameterUnit":"m.s-1","parameterCategory":1,"la1":30.2991,"la2":30.254,"lo1":-89.0895,"lo2":-89.0444,"dy":0.0017,"dx":0.0017,"nx":28,"ny":28,"refTime":"2025-08-18T09:00:00:Z","depth":0,"parameterNumber":2,"parameterNumberName":"U-component_of_WINDS"},"data":[0,0,0,0,0,0,0,0,0,0,0,0,0,0,0,0,0,0,0,0,0,0,0,0,0,0,0,0,0,0,0,0,0,0,0,0,0,0,0,0,0,0,0,0,0,0,0,0,0,0,0,0,0,0,0,0,0,0,-0.9085,-0.9085,0,-0.9082,-0.9082,-0.9082,-0.9034,-0.9033,-0.9032,-0.9031,-0.9029,-0.903,-0.9031,0,0,0,0,0,0,0,0,0,0,0,0,0,-0.905,-0.9051,-0.9085,-0.9085,-0.9085,-0.9082,-0.9082,-0.9082,-0.9035,-0.9033,-0.9032,-0.903,-0.9028,-0.9029,-0.9031,0,0,0,0,0,0,0,0,0,0,0,0,0,-0.9058,-0.9051,-0.9085,-0.9061,-0.9059,-0.9082,-0.9082,-0.9082,-0.9035,-0.9033,-0.9031,-0.903,-0.9028,-0.9029,-0.9031,-0.9077,0,0,-0.9036,-0.9036,0,0,0,0,0,0,0,0,-0.9058,-0.9059,-0.9065,-0.9063,-0.906,-0.9057,-0.9068,-0.908,-0.9035,-0.9044,-0.9031,-0.9029,-0.9039,-0.904,-0.9043,-0.9076,-0.9076,-0.9036,-0.9037,-0.9037,-0.9038,0,0,0,0,0,0,0,-0.9057,-0.9059,-0.9084,-0.9065,-0.9062,-0.905,-0.9049,-0.907,-0.9052,-0.9043,-0.904,-0.904,-0.9038,-0.9042,-0.9043,-0.9076,-0.9036,-0.9037,-0.9038,-0.9039,-0.9145,-0.9147,0,0,0,0,0,0,-0.906,-0.9059,-0.9084,-0.9084,-0.9054,-0.9052,-0.9051,-0.906,-0.9052,-0.9049,-0.9042,-0.9038,-0.904,-0.9041,-0.9043,-0.9094,-0.9037,-0.9039,-0.904,-0.9143,-0.9145,-0.9147,0,0,0,0,0,0,-0.9059,-0.9063,-0.9084,-0.907,-0.9072,-0.9055,-0.9065,-0.9061,-0.9064,-0.905,-0.9047,-0.9049,-0.9039,-0.904,-0.9068,-0.9094,-0.904,-0.9041,-0.9141,-0.9144,-0.9146,-0.9199,0,0,0,0,0,0,-0.9059,-0.9063,-0.908,-0.9071,-0.9073,-0.911,-0.9066,-0.9062,-0.9067,-0.9062,-0.9056,-0.9054,-0.9037,-0.9066,-0.907,-0.9095,-0.9042,-0.9138,-0.9142,-0.9145,-0.9195,-0.9204,-0.9211,0,0,0,0,0,-0.9057,-0.9096,-0.9081,-0.9085,-0.9095,-0.9111,-0.9112,-0.9093,-0.9069,-0.9087,-0.9077,-0.9054,-0.909,-0.9069,-0.9073,-0.9099,-0.9137,-0.9141,-0.9145,-0.9192,-0.9202,-0.9211,0,0,0,0,0,0,-0.9109,-0.9094,-0.9078,-0.9115,-0.9114,-0.9103,-0.9125,-0.9104,-0.9111,-0.9107,-0.9082,-0.9081,-0.9112,-0.9108,-0.9085,-0.9142,-0.9109,-0.9114,-0.9143,-0.9153,-0.9161,-0.9161,-0.9044,0,0,0,0,0,-0.9125,-0.914,-0.9126,-0.9159,-0.916,-0.9142,-0.9149,-0.9133,-0.9133,-0.9132,-0.9125,-0.9125,-0.9136,-0.9144,-0.9154,-0.9194,-0.9192,-0.9214,-0.9222,-0.9228,-0.9233,-0.9252,-0.9262,-0.9161,-0.9161,-0.9161,0,0,-0.9158,-0.9151,-0.9162,-0.9169,-0.9168,-0.9183,-0.9143,-0.9161,-0.9172,-0.9135,-0.9161,-0.9155,-0.9153,-0.9187,-0.9202,-0.9185,-0.926,-0.9233,-0.9239,-0.924,-0.9258,-0.9267,-0.9276,-0.9164,-0.9163,-0.9163,0,0,-0.9225,-0.9222,-0.9248,-0.9247,-0.9244,-0.9232,-0.9238,-0.923,-0.9224,-0.9249,-0.9221,-0.9234,-0.9254,-0.9254,-0.9256,-0.9321,-0.9299,-0.9325,-0.9365,-0.9385,-0.9393,-0.94,-0.9422,-0.943,-0.9329,-0.933,-0.933,0,-0.9266,-0.9288,-0.9265,-0.9285,-0.9288,-0.9254,-0.9281,-0.9281,-0.9282,-0.9285,-0.9266,-0.9289,-0.9286,-0.9318,-0.9334,-0.9337,-0.9343,-0.9325,-0.9393,-0.94,-0.9406,-0.9427,-0.9436,-0.9333,-0.9332,-0.9332,-0.9332,0,-0.9338,-0.9353,-0.9375,-0.9376,-0.9382,-0.9405,-0.9386,-0.9394,-0.9378,-0.9367,-0.9392,-0.9387,-0.9394,-0.94,-0.9385,-0.943,-0.942,-0.9398,-0.9364,-0.9419,-0.9438,-0.9446,-0.9337,-0.9336,-0.9335,-0.9334,0,0,-0.9439,-0.9425,-0.9433,-0.9432,-0.9426,-0.9437,-0.9459,-0.9465,-0.9472,-0.9474,-0.949,-0.9507,-0.9486,-0.9489,-0.9473,-0.949,-0.954,-0.9465,-0.9465,-0.9479,-0.9588,-0.9605,-0.9615,-0.9525,-0.9527,-0.9528,-0.9588,0,-0.9503,-0.9538,-0.9517,-0.9555,-0.9569,-0.9536,-0.9554,-0.9552,-0.9542,-0.9552,-0.9541,-0.9553,-0.9525,-0.9526,-0.9541,-0.9531,-0.9562,-0.9526,-0.954,-0.9541,-0.9542,-0.9625,-0.9643,-0.97,-0.9596,-0.9597,-0.9598,0,-0.9583,-0.9586,-0.9626,-0.9615,-0.962,-0.9636,-0.9639,-0.965,-0.9646,-0.9637,-0.964,-0.9619,-0.9638,-0.9605,-0.9631,-0.9607,-0.9612,-0.9607,-0.9609,-0.9609,-0.9573,-0.9627,-0.9718,-0.9726,-0.961,-0.9609,-0.9608,0,-0.9652,-0.9666,-0.9691,-0.9692,-0.968,-0.9692,-0.9688,-0.9682,-0.9687,-0.9689,-0.9692,-0.9697,-0.97,-0.9704,-0.9685,-0.9663,-0.9713,-0.9679,-0.9707,-0.9707,-0.9719,-0.9719,-0.9811,-0.9723,-0.9722,-0.9722,-0.9722,0,-0.9726,-0.9751,-0.9722,-0.9737,-0.9764,-0.9739,-0.9766,-0.9758,-0.9753,-0.9766,-0.9738,-0.9751,-0.9725,-0.9735,-0.972,-0.9743,-0.9745,-0.9738,-0.9734,-0.9741,-0.9741,-0.9743,-0.9739,-0.9724,-0.9724,-0.9724,-0.9723,0,-0.9808,-0.9789,-0.9814,-0.98,-0.9797,-0.9817,-0.9805,-0.9818,-0.9806,-0.9823,-0.9825,-0.9806,-0.9816,-0.9797,-0.9805,-0.9795,-0.9827,-0.9817,-0.9828,-0.9825,-0.9854,-0.9851,-0.9951,-0.9962,-0.9866,-0.9867,-0.9868,0,-0.9856,-0.9874,-0.9862,-0.9868,-0.9865,-0.9875,-0.9879,-0.9855,-0.9861,-0.9856,-0.987,-0.9878,-0.9882,-0.99,-0.9887,-0.9892,-0.9881,-0.9916,-0.9882,-0.9888,-0.9881,-0.988,-0.9881,-0.9923,-0.9924,-0.9925,-0.9926,0,-0.9944,-0.9933,-0.9939,-0.9942,-0.9948,-0.9949,-0.9949,-0.9955,-0.9929,-0.9937,-0.9946,-0.995,-0.9957,-0.9964,-0.9966,-0.9961,-0.9939,-0.9936,-0.9943,-0.995,-0.9955,-0.9952,-0.9847,-0.9934,-0.9933,-0.9933,-0.9932,-0.9932,-1.001,-1.0024,-1.0016,-1.0024,-1.0021,-1.002,-1.0032,-1.002,-1.0027,-1.0031,-1.0016,-1.0028,-1.0023,-1.0023,-1.002,-1.0029,-1.0014,-1.0024,-1.0026,-1.0029,-1.0033,-0.9954,-1.003,-1.0029,-1.0029,-1.0029,-1.0029,0,-1.0095,-1.0088,-1.0095,-1.0095,-1.0101,-1.0078,-1.0076,-1.0082,-1.0093,-1.009,-1.0094,-1.0104,-1.0111,-1.0097,-1.0102,-1.0112,-1.0102,-1.0114,-1.0113,-1.0112,-1.0047,-1.0041,-1.0122,-1.0122,-1.0122,-1.0122,-1.0122,-1.0122,-1.014,-1.0162,-1.015,-1.017,-1.0163,-1.0174,-1.0175,-1.0174,-1.0171,-1.0183,-1.0188,-1.0179,-1.0171,-1.0174,-1.0179,-1.0175,-1.0177,-1.0193,-1.0185,-1.0125,-1.0116,-1.0108,-1.0102,-1.0194,-1.0194,-1.0249,-1.025,-1.025]},{"header":{"parameterUnit":"m.s-1","parameterCategory":1,"la1":30.2991,"la2":30.254,"lo1":-89.0895,"lo2":-89.0444,"dy":0.0017,"dx":0.0017,"nx":28,"ny":28,"refTime":"2025-08-18T09:00:00:Z","depth":0,"parameterNumber":3,"parameterNumberName":"V-component_of_WINDS"},"data":[0,0,0,0,0,0,0,0,0,0,0,0,0,0,0,0,0,0,0,0,0,0,0,0,0,0,0,0,0,0,0,0,0,0,0,0,0,0,0,0,0,0,0,0,0,0,0,0,0,0,0,0,0,0,0,0,0,0,-2.2394,-2.2395,0,-2.2469,-2.2469,-2.247,-2.2471,-2.247,-2.2469,-2.2468,-2.254,-2.2543,-2.2546,0,0,0,0,0,0,0,0,0,0,0,0,0,-2.2247,-2.225,-2.2394,-2.2395,-2.2396,-2.2468,-2.2469,-2.247,-2.2471,-2.247,-2.2469,-2.2468,-2.254,-2.2543,-2.2546,0,0,0,0,0,0,0,0,0,0,0,0,0,-2.2315,-2.2251,-2.2394,-2.2405,-2.2407,-2.2468,-2.2469,-2.2471,-2.2471,-2.247,-2.2469,-2.2467,-2.2538,-2.2543,-2.2547,-2.2601,0,0,-2.2559,-2.2561,0,0,0,0,0,0,0,0,-2.2312,-2.2321,-2.2402,-2.2404,-2.2406,-2.2459,-2.2444,-2.2514,-2.2472,-2.2447,-2.2468,-2.2467,-2.2514,-2.252,-2.2537,-2.2604,-2.2607,-2.256,-2.2562,-2.2564,-2.2565,0,0,0,0,0,0,0,-2.2307,-2.2317,-2.2423,-2.2404,-2.2406,-2.2405,-2.2413,-2.2458,-2.2487,-2.2449,-2.2449,-2.2458,-2.2515,-2.2533,-2.2539,-2.2608,-2.256,-2.2563,-2.2566,-2.2568,-2.2722,-2.2723,0,0,0,0,0,0,-2.23,-2.2314,-2.2421,-2.2426,-2.2355,-2.2409,-2.2418,-2.2444,-2.2487,-2.2492,-2.2459,-2.2458,-2.2527,-2.2534,-2.2541,-2.2607,-2.2564,-2.2568,-2.257,-2.272,-2.2722,-2.2724,0,0,0,0,0,0,-2.2297,-2.231,-2.2418,-2.237,-2.2383,-2.2413,-2.2442,-2.2446,-2.2464,-2.2495,-2.25,-2.2473,-2.2526,-2.2536,-2.2586,-2.2609,-2.257,-2.2574,-2.2718,-2.2721,-2.2723,-2.2738,0,0,0,0,0,0,-2.2293,-2.2309,-2.2331,-2.237,-2.2386,-2.2463,-2.2443,-2.2448,-2.2472,-2.2471,-2.2509,-2.2514,-2.2526,-2.258,-2.259,-2.2614,-2.2577,-2.2716,-2.2719,-2.2722,-2.2736,-2.2741,-2.2745,0,0,0,0,0,-2.2288,-2.2332,-2.2332,-2.2345,-2.2414,-2.2464,-2.2473,-2.2487,-2.2474,-2.2495,-2.2515,-2.2512,-2.2605,-2.2585,-2.2597,-2.2622,-2.2715,-2.2718,-2.2722,-2.2734,-2.274,-2.2745,0,0,0,0,0,0,-2.2293,-2.2337,-2.2338,-2.2396,-2.2426,-2.2464,-2.2492,-2.2493,-2.2527,-2.2524,-2.2539,-2.2548,-2.2598,-2.2615,-2.2592,-2.2676,-2.2658,-2.2664,-2.2663,-2.2669,-2.2674,-2.2668,-2.2581,0,0,0,0,0,-2.2301,-2.2339,-2.2375,-2.2423,-2.2438,-2.2462,-2.2484,-2.2493,-2.2524,-2.2537,-2.256,-2.2589,-2.2625,-2.2648,-2.2683,-2.2738,-2.2746,-2.2762,-2.2767,-2.277,-2.2775,-2.2805,-2.2812,-2.2735,-2.2735,-2.2735,0,0,-2.2317,-2.2346,-2.2369,-2.2424,-2.2449,-2.2486,-2.2473,-2.2513,-2.2541,-2.2542,-2.2592,-2.261,-2.2643,-2.2696,-2.2721,-2.2712,-2.2798,-2.2775,-2.2778,-2.278,-2.2809,-2.2816,-2.2823,-2.2738,-2.2737,-2.2737,0,0,-2.2367,-2.2393,-2.2435,-2.246,-2.2498,-2.2514,-2.2524,-2.2562,-2.2574,-2.2624,-2.2625,-2.2658,-2.2719,-2.2743,-2.2763,-2.2821,-2.2819,-2.2832,-2.2856,-2.2885,-2.2891,-2.2896,-2.2916,-2.2923,-2.2836,-2.2837,-2.2837,0,-2.2382,-2.2441,-2.2456,-2.2497,-2.2521,-2.2525,-2.2567,-2.259,-2.2636,-2.2652,-2.2642,-2.2719,-2.2742,-2.28,-2.2814,-2.2831,-2.2842,-2.2827,-2.2889,-2.2894,-2.29,-2.2918,-2.2926,-2.2838,-2.2838,-2.2837,-2.2837,0,-2.2457,-2.2497,-2.2527,-2.2573,-2.26,-2.2641,-2.2661,-2.2686,-2.2692,-2.2709,-2.2758,-2.2786,-2.2826,-2.2841,-2.2846,-2.2899,-2.2893,-2.2886,-2.2868,-2.2908,-2.2926,-2.2933,-2.2839,-2.2839,-2.2839,-2.2838,0,0,-2.2512,-2.2566,-2.2577,-2.2597,-2.2639,-2.267,-2.271,-2.2751,-2.2771,-2.2803,-2.2836,-2.2888,-2.2882,-2.2905,-2.2913,-2.2938,-2.2981,-2.2928,-2.2929,-2.2936,-2.304,-2.3044,-2.3053,-2.2981,-2.2982,-2.2983,-2.3037,0,-2.2565,-2.2639,-2.2654,-2.2717,-2.2754,-2.2758,-2.2793,-2.2822,-2.2838,-2.287,-2.2887,-2.2924,-2.2913,-2.2927,-2.2952,-2.2971,-2.3002,-2.2967,-2.301,-2.3012,-2.3001,-2.3062,-2.3067,-2.3116,-2.3044,-2.3045,-2.3046,0,-2.2637,-2.2672,-2.2739,-2.2776,-2.2791,-2.2823,-2.2861,-2.2892,-2.2924,-2.2934,-2.2959,-2.2965,-2.3005,-2.2986,-2.3041,-2.3017,-2.3035,-2.3047,-2.3049,-2.3053,-2.3031,-2.3067,-2.3132,-2.3139,-2.3057,-2.3057,-2.3056,0,-2.2669,-2.2732,-2.2781,-2.2798,-2.2842,-2.2864,-2.2883,-2.2914,-2.2937,-2.2969,-2.2984,-2.302,-2.304,-2.3067,-2.3082,-2.3066,-2.3136,-2.3118,-2.3144,-2.3143,-2.3158,-2.3156,-2.3226,-2.3171,-2.3171,-2.3171,-2.317,0,-2.2726,-2.2767,-2.2795,-2.2825,-2.287,-2.2887,-2.2931,-2.2949,-2.2976,-2.3008,-2.3014,-2.3043,-2.3061,-2.3093,-2.3104,-2.3148,-2.3157,-2.3165,-2.3167,-2.3164,-2.3163,-2.3176,-2.3172,-2.3173,-2.3172,-2.3172,-2.3171,0,-2.2769,-2.279,-2.2843,-2.288,-2.2891,-2.2922,-2.2954,-2.2982,-2.2998,-2.3038,-2.3049,-2.3074,-2.3111,-2.3129,-2.3175,-2.3182,-2.3232,-2.3232,-2.3221,-2.3222,-2.3247,-2.3244,-2.3327,-2.3338,-2.3276,-2.3276,-2.3277,0,-2.2804,-2.2836,-2.2877,-2.2899,-2.2919,-2.2956,-2.2979,-2.2996,-2.302,-2.3059,-2.3082,-2.312,-2.3152,-2.3211,-2.3232,-2.3267,-2.3268,-2.3295,-2.3273,-2.3269,-2.3267,-2.3265,-2.3268,-2.3298,-2.3299,-2.3299,-2.33,0,-2.2863,-2.2872,-2.2907,-2.2946,-2.2974,-2.3005,-2.3035,-2.3053,-2.3074,-2.3101,-2.314,-2.3165,-2.3212,-2.3249,-2.3286,-2.3304,-2.3305,-2.3307,-2.3314,-2.3311,-2.3303,-2.3307,-2.3231,-2.3304,-2.3304,-2.3304,-2.3303,-2.3303,-2.2903,-2.2931,-2.2964,-2.3002,-2.3027,-2.3055,-2.3083,-2.3103,-2.3137,-2.3178,-2.3186,-2.3227,-2.3257,-2.3306,-2.3325,-2.3357,-2.335,-2.3362,-2.3364,-2.3367,-2.3368,-2.3299,-2.3363,-2.3363,-2.3363,-2.3363,-2.3363,0,-2.2961,-2.2983,-2.3019,-2.3061,-2.3091,-2.3091,-2.3124,-2.3149,-2.3186,-2.3214,-2.3245,-2.329,-2.3326,-2.335,-2.3386,-2.3407,-2.3408,-2.3416,-2.3414,-2.3418,-2.3372,-2.3361,-2.3414,-2.3414,-2.3414,-2.3414,-2.3414,-2.3414,-2.2995,-2.3043,-2.3055,-2.3114,-2.3135,-2.3177,-2.3196,-2.3221,-2.3244,-2.3294,-2.3325,-2.3341,-2.3367,-2.3405,-2.3438,-2.3444,-2.3456,-2.3464,-2.3469,-2.3426,-2.3421,-2.3416,-2.3406,-2.3467,-2.3467,-2.3512,-2.3513,-2.3513]}]]